Flag for Switzerland Weather past 2 weeks in Köniz, Bern, Switzerland

Now
37 °F

Passing clouds.


Feels Like: 37 °F
Forecast: 29 / 53 °F
Wind: 1 mph from North

Location: Bern / Belp

Current Time: Mar 27, 2015 at 10:42:35 PM

Latest Report: Mar 27, 2015 at 9:50 PM


Visibility: N/A

Pressure: 30.24 "Hg

Humidity: 87%

Dew point: 34 °F

Location of KönizLocation

Historic Weather in Köniz — Graph

°F

Köniz temperature yesterday

Maximum temperature yesterday: 46 °F (at 2:50 PM)
Minimum temperature yesterday: 37 °F (at 12:20 AM)
Average temperature yesterday: 42 °F

Past Weeks' High & Low Weather Summary

 TemperatureHumidityPressure
High64 °F (Mar 18, 2:20 PM)100% (Mar 13, 4:20 AM)30.24 "Hg (Mar 13, 4:20 AM)
Low23 °F (Mar 13, 5:50 AM)31% (Mar 17, 1:50 PM)29.59 "Hg (Mar 25, 11:50 AM)
Average43 °F77%30.02 "Hg
* Reported Mar 12 9:20 PM — Mar 27 9:20 PM, Köniz, Weather by CustomWeather, © 2015

Note: Actual official high and low records may vary slightly from our data, if they occured in-between our weather recording intervals... More about our weather records

Advertising

Köniz weather history for previous 24 hours

 ConditionsComfort  
Time TempWeatherWind HumidityBarometerVisibility
9:20 PM
Fri, Mar 27
39 °FPassing clouds.1 mph81%30.24 "HgN/A
8:50 PM37 °FPassing clouds.3 mph87%30.24 "HgN/A
8:20 PM41 °FPassing clouds.1 mph76%30.21 "HgN/A
7:50 PM41 °FPassing clouds.1 mph76%30.21 "HgN/A
7:20 PM45 °FPassing clouds.5 mph61%30.21 "HgN/A
6:50 PM45 °FPassing clouds.9 mph66%30.18 "HgN/A
6:20 PM50 °FScattered clouds.10 mph47%30.18 "HgN/A
5:50 PM50 °FPassing clouds.10 mph50%30.15 "HgN/A
5:20 PM52 °FScattered clouds.12 mph44%30.15 "HgN/A
4:50 PM52 °FScattered clouds.12 mph47%30.15 "HgN/A
4:20 PM52 °FPartly sunny.12 mph47%30.15 "HgN/A
3:50 PM52 °FScattered clouds.9 mph44%30.12 "HgN/A
3:20 PM52 °FScattered clouds.12 mph47%30.12 "HgN/A
2:50 PM50 °FScattered clouds.13 mph54%30.12 "HgN/A
2:20 PM52 °FPassing clouds.8 mph44%30.12 "HgN/A
1:50 PM52 °FScattered clouds.10 mph50%30.12 "HgN/A
1:20 PM50 °FScattered clouds.10 mph54%30.12 "HgN/A
12:50 PM48 °FPartly sunny.9 mph66%30.12 "HgN/A
12:20 PM46 °FPartly sunny.10 mph66%30.12 "HgN/A
11:50 AM50 °FBroken clouds.9 mph54%30.12 "HgN/A
11:20 AM48 °FScattered clouds.6 mph54%30.12 "HgN/A
10:50 AM46 °FBroken clouds.7 mph62%30.12 "HgN/A
10:20 AM48 °FBroken clouds.9 mph66%30.12 "HgN/A
9:50 AM46 °FPartly sunny.10 mph66%30.09 "HgN/A
9:20 AM46 °FScattered clouds.10 mph71%30.09 "HgN/A
8:50 AM45 °FScattered clouds.5 mph81%30.09 "HgN/A
8:20 AM43 °FPartly sunny.3 mph81%30.07 "HgN/A
7:50 AM43 °FPartly sunny.3 mph87%30.07 "HgN/A
7:20 AM41 °FBroken clouds.3 mph93%30.04 "HgN/A
6:50 AM41 °FPartly sunny.3 mph93%30.04 "HgN/A
6:20 AM41 °FPartly sunny.2 mph93%30.01 "HgN/A
5:50 AM41 °FPartly cloudy.2 mph87%30.01 "HgN/A
5:20 AM41 °FMostly cloudy.2 mph87%30.01 "HgN/A
4:20 AM43 °FPartly cloudy.8 mph81%29.98 "HgN/A
3:50 AM41 °FPartly cloudy.3 mph93%29.98 "HgN/A
3:20 AM41 °FPartly cloudy.3 mph93%29.98 "HgN/A
2:50 AM41 °FPartly cloudy.2 mph93%29.98 "HgN/A
2:20 AM41 °FPartly cloudy.5 mph93%29.98 "HgN/A
1:50 AM41 °FLight rain. Partly cloudy.2 mph87%29.98 "HgN/A
1:20 AM41 °FLight rain. Partly cloudy.5 mph93%29.95 "Hg4 mi
12:50 AM41 °FPartly cloudy.2 mph93%29.95 "Hg3 mi
12:20 AM41 °FPartly cloudy.2 mph93%29.95 "Hg3 mi
11:50 PM
Thu, Mar 26
43 °FPassing clouds.3 mph81%29.95 "Hg5 mi
11:20 PM43 °FPassing clouds.2 mph81%29.92 "HgN/A
10:50 PM43 °FPassing clouds.5 mph81%29.92 "HgN/A
10:20 PM43 °FMostly cloudy.6 mph76%29.92 "HgN/A
Weather by CustomWeather, © 2015

See weather overviewHow to use our weather pages